Nowra Airport

Jump to: basic info | weather | frequencies | runways | comments

Related pages: nearby airports | nearby navaids | notams | map

Basic information (top)

Codes: NOA YSNW
Location: lon -34.948898, lat 150.537003, elev 400 ft / 122 m msl
Status: medium_airport

Weather (top)

Current conditions (rec'd 2014/10/25 23:00Z):

YSNW 252300Z AUTO 14007KT 9999 // NCD 21/16 Q1010

Airport forecast for Sydney Kingsford Smith International Airport 68nm (126km) NNE (rec'd 2014/10/25 00:33Z):

TAF YSSY 252320Z 2600/2706 34005KT 9999 FEW010 
     FM260100 16015KT 9999 FEW035 
     FM260900 12005KT 9999 SCT010 
     FM261500 33008KT 9999 FEW020 
     FM270000 01012KT CAVOK 
     FM270300 30015G25KT CAVOK PROB30 
      TEMPO 2702/2706 VRB15G35KT 3000 TSRA SCT015 SCT035CB 
      RMK

Frequencies (top)

Verify before use: may be inaccurate or out of date.

APP: 123.5 MHz (APP)
ATIS: 28.04 MHz (ATIS)
CLD: 128.35 MHz (CLNC DEL)
CTAF: 118.85 MHz (CTAF)
FSS: 121.2 MHz (MELBOURNE CNTR)
GND: 135.85 MHz (GND)
TWR: 118.85 MHz (TWR)

Runways (top)

03/21: 6,713 x 148 ft (2,046 x 45 m) — paved — lighted

08/26: 6,870 x 148 ft (2,094 x 45 m) — paved — lighted — threshold 26 displaced 298 ft (91 m)

Latest comments (top)

No comments yet for Nowra Airport

More... (top)

See also NOTAMs and nearby airports and navaids, or visit the Nowra Airport page at the main OurAirports website..